"Pseudo-MPEC" for C0T2VU5

Created 2024 May 21 19:22:03 UT using Find_Orb

Click here for an explanation of pseudo-MPECs

 
 Astrometry: 
     C0T2VU5* C2024 05 08.37422812 54 22.208+14 33 54.43   ~589q 23.42GVNEOCPV00
     C0T2VU5  C2024 05 08.38083212 54 22.435+14 33 52.88   ~589q       VNEOCPV00
     C0T2VU5  C2024 05 08.38581112 54 22.630+14 33 52.56   ~589q 21.64GVNEOCPV00
     C0T2VU5  C2024 05 08.39080012 54 22.802+14 33 50.94   ~589q 22.93GVNEOCPV00

Station data:
(V00) Kitt Peak-Bok  (N31.963125 W111.600190)  US/Arizona.  Observers T. A.
   Pruyne, B. M. Africano, E. J. Christensen, G. A. Farneth, D. C. Fuls, A.
   R. Gibbs, A. D. Grauer, H. Gröller, J. A. Johnson, R. A. Kowalski, S. M.
   Larson, G. J. Leonard, D. Rankin, R. L. Seaman, F. C. Shelly, K. W.
   Wierzchoś. 2.25-m reflector + 4x4K mosaic CCD.

Orbital elements:  C0T2VU5
   Perihelion 2024 Mar 10.63973 +/- 48.1 TT = 15:21:12 (JD 2460380.13973)
Epoch 2024 May  8.0 TT = JDT 2460438.5   Earth MOID: 0.0089   Me: 0.0277
M   6.37367985 +/- 36               (J2000 ecliptic)             AutoNEOCP
n   0.10921265 +/- 0.261            Peri.  239.71037 +/- 90
a   4.33465037 +/- 6.9              Node   208.35191 +/- 39
e   0.9352802 +/- 0.258             Incl.   38.36334 +/- 17
P   9.02                   H 22.68  G  0.15   U 11.8  SR
q 0.28053745 +/- 0.562    Q 8.38876330 +/- 61.7
From 4 observations 2024 May 8 (23.9 min); mean residual 0".20
Residuals in arcseconds: 
240508 V00  .04+  .01+    240508 V00  .10+  .43+    
240508 V00  .12-  .24-    240508 V00  .03-  .21-    

Ephemerides (geocentric):
Date (UTC) HH   RA             Dec           delta  r     elong  mag " sig PA
---- --------  ------------   ------------  ------ ------ -----  --- --------
2024 05 21 19  13 02 35.809   +13 32 04.76  .75792 1.5799 125.8 24.4  17d  80
2024 05 21 20  13 02 37.333   +13 31 50.28  .75891 1.5805 125.7 24.4  17d  80
2024 05 21 21  13 02 38.857   +13 31 35.80  .75989 1.5812 125.7 24.4  17d  80
2024 05 21 22  13 02 40.382   +13 31 21.30  .76088 1.5818 125.7 24.4  17d  80
2024 05 21 23  13 02 41.907   +13 31 06.79  .76187 1.5825 125.7 24.4  17d  80
2024 05 22 00  13 02 43.432   +13 30 52.26  .76286 1.5831 125.6 24.4  17d  80
2024 05 22 01  13 02 44.958   +13 30 37.72  .76384 1.5838 125.6 24.4  17d  80
2024 05 22 02  13 02 46.484   +13 30 23.17  .76483 1.5844 125.6 24.4  17d  80
2024 05 22 03  13 02 48.010   +13 30 08.61  .76582 1.5851 125.5 24.4  17d  80
2024 05 22 04  13 02 49.537   +13 29 54.04  .76681 1.5857 125.5 24.4  17d  80
2024 05 22 05  13 02 51.065   +13 29 39.45  .76780 1.5864 125.5 24.4  17d  80
2024 05 22 06  13 02 52.592   +13 29 24.85  .76879 1.5870 125.5 24.4  17d  80
2024 05 22 07  13 02 54.120   +13 29 10.24  .76978 1.5876 125.4 24.5  17d  80
2024 05 22 08  13 02 55.649   +13 28 55.62  .77077 1.5883 125.4 24.5  17d  80
2024 05 22 09  13 02 57.178   +13 28 40.98  .77175 1.5889 125.4 24.5  17d  79
2024 05 22 10  13 02 58.707   +13 28 26.34  .77274 1.5896 125.3 24.5  17d  79
2024 05 22 11  13 03 00.237   +13 28 11.68  .77373 1.5902 125.3 24.5  17d  79
2024 05 22 12  13 03 01.767   +13 27 57.00  .77472 1.5909 125.3 24.5  17d  79
2024 05 22 13  13 03 03.298   +13 27 42.32  .77571 1.5915 125.2 24.5  17d  79
2024 05 22 14  13 03 04.829   +13 27 27.62  .77670 1.5922 125.2 24.5  17d  79
2024 05 22 15  13 03 06.360   +13 27 12.92  .77769 1.5928 125.2 24.5  17d  79
2024 05 22 16  13 03 07.892   +13 26 58.20  .77868 1.5935 125.2 24.5  17d  79
2024 05 22 17  13 03 09.424   +13 26 43.47  .77967 1.5941 125.1 24.5  17d  79
2024 05 22 18  13 03 10.957   +13 26 28.72  .78066 1.5948 125.1 24.5  17d  79
2024 05 22 19  13 03 12.490   +13 26 13.97  .78165 1.5954 125.1 24.5  17d  79
2024 05 22 20  13 03 14.023   +13 25 59.20  .78264 1.5960 125.0 24.5  17d  79
2024 05 22 21  13 03 15.557   +13 25 44.42  .78363 1.5967 125.0 24.5  17d  79
2024 05 22 22  13 03 17.091   +13 25 29.63  .78462 1.5973 125.0 24.5  17d  79
2024 05 22 23  13 03 18.626   +13 25 14.83  .78562 1.5980 125.0 24.5  17d  79
2024 05 23 00  13 03 20.161   +13 25 00.01  .78661 1.5986 124.9 24.5  17d  79
2024 05 23 01  13 03 21.697   +13 24 45.19  .78760 1.5993 124.9 24.5  18d  79
2024 05 23 02  13 03 23.233   +13 24 30.35  .78859 1.5999 124.9 24.5  18d  79
2024 05 23 03  13 03 24.769   +13 24 15.50  .78958 1.6006 124.8 24.5  18d  79
2024 05 23 04  13 03 26.306   +13 24 00.64  .79057 1.6012 124.8 24.5  18d  79
2024 05 23 05  13 03 27.843   +13 23 45.77  .79156 1.6018 124.8 24.5  18d  79
2024 05 23 06  13 03 29.381   +13 23 30.89  .79255 1.6025 124.7 24.5  18d  79
2024 05 23 07  13 03 30.919   +13 23 15.99  .79355 1.6031 124.7 24.5  18d  79
2024 05 23 08  13 03 32.458   +13 23 01.09  .79454 1.6038 124.7 24.5  18d  79
2024 05 23 09  13 03 33.997   +13 22 46.17  .79553 1.6044 124.7 24.5  18d  78
2024 05 23 10  13 03 35.537   +13 22 31.24  .79652 1.6051 124.6 24.5  18d  78
2024 05 23 11  13 03 37.077   +13 22 16.30  .79752 1.6057 124.6 24.6  18d  78
2024 05 23 12  13 03 38.617   +13 22 01.35  .79851 1.6063 124.6 24.6  18d  78
2024 05 23 13  13 03 40.158   +13 21 46.39  .79950 1.6070 124.5 24.6  18d  78
2024 05 23 14  13 03 41.699   +13 21 31.41  .80049 1.6076 124.5 24.6  18d  78
2024 05 23 15  13 03 43.241   +13 21 16.43  .80149 1.6083 124.5 24.6  18d  78
2024 05 23 16  13 03 44.783   +13 21 01.43  .80248 1.6089 124.5 24.6  18d  78
2024 05 23 17  13 03 46.326   +13 20 46.42  .80347 1.6096 124.4 24.6  19d  78
2024 05 23 18  13 03 47.869   +13 20 31.40  .80447 1.6102 124.4 24.6  19d  78